Regional Weather Roundup
Issued by NWS

Home | Current Version | Previous Version | Graphics & Text | Print | Product List | Glossary On
Versions: 1 2 3 4 5 6 7 8 9 10 11 12 13 14 15 16 17 18 19 20 21 22 23 24 25 26 27 28 29 30 31 32 33 34 35 36 37 38 39 40 41 42 43 44 45 46 47 48 49 50
000
ASUS43 KLSX 250407
RWRMO
STLRWRMO ALL

WEATHER SUMMARY FOR MISSOURI
NATIONAL WEATHER SERVICE SPRINGFIELD MO
1100 PM CDT MON APR 24 2017

NOTE: "FAIR" INDICATES FEW OR NO CLOUDS BELOW 12,000 FEET WITH NO
       SIGNIFICANT WEATHER AND/OR OBSTRUCTIONS TO VISIBILITY.
       CURRENT SKY AND/OR WEATHER CONDITIONS ARE NOT AVAILABLE FOR
       CHILLICOTHE AND FARMINGTON.

MOZ001>031-035>038-043-044-053-054-250500-
...NORTHERN AND WESTERN MISSOURI...

CITY           SKY/WX    TMP DP  RH WIND       PRES   REMARKS
KANSAS CTY INT PTCLDY    62  44  51 S13       29.60S
KANSAS C DTWN  CLEAR     67  42  40 S12       29.59F
LEE`S SUMMIT   CLOUDY    66  42  41 S10       29.62F
ST JOSEPH      CLEAR     63  45  51 S10       29.58F
CHILLICOTHE      N/A     56  40  55 CALM      29.63F
KIRKSVILLE     CLEAR     54  32  43 SE10      29.65S

$$
MOZ066>068-077>081-088>096-101>105-250500-
...SOUTHWEST MISSOURI...

CITY           SKY/WX    TMP DP  RH WIND       PRES   REMARKS
SPRINGFIELD    CLEAR     58  39  49 S8        29.70R
JOPLIN         CLOUDY    59  44  57 SE6       29.67S
BRANSON        PTCLDY    55  37  50 CALM      29.72

$$
MOZ032>034-039>042-045>050-055>058-069>072-250500-
...CENTRAL MISSOURI...

CITY           SKY/WX    TMP DP  RH WIND       PRES   REMARKS
COLUMBIA       CLEAR     58  36  43 S7        29.68S
JEFFERSON CITY CLOUDY    62  39  42 CALM      29.69R
ROLLA          CLEAR     63  36  36 S15       29.70R
SEDALIA        PTCLDY    58  38  47 S9        29.67S
WHITEMAN AFB   PTCLDY    59  37  43 S7        29.63F
OSAGE BEACH    CLEAR     61  39  44 S6        29.70R

$$
MOZ051-052-059>065-250500-
...EAST CENTRAL MISSOURI...

CITY           SKY/WX    TMP DP  RH WIND       PRES   REMARKS
ST LOUIS INTL  CLEAR     67  37  33 SE9       29.72S
SPIRIT OF STL  CLEAR     58  42  55 CALM      29.71R
ST CHARLES     CLEAR     59  40  49 SE10      29.70S

$$
MOZ072>076-082>087-097>100-106>115-250500-
...SOUTH CENTRAL AND SOUTHEAST MISSOURI...

CITY           SKY/WX    TMP DP  RH WIND       PRES   REMARKS
CAPE GIRARDEAU CLEAR     56  52  86 CALM      29.73F
FARMINGTON     CLEAR     57  44  62 S6        29.74S
POPLAR BLUFF   CLEAR     59  57  93 CALM      29.74R
WEST PLAINS    CLEAR     60  43  53 S8        29.75R

$$




USA.gov is the U.S. government's official web portal to all federal, state and local government web resources and services.